METEOSAT-5 (MOP-2) 1 21140U 91015B 10074.83120660 -.00000091 00000-0 10000-3 0 1337 2 21140 11.5006 46.2387 0004337 166.9987 193.0667 0.98451129 71757 METEOSAT-6 (MOP-3) 1 22912U 93073B 10073.74093616 -.00000020 00000-0 00000+0 0 5128 2 22912 8.9953 56.6673 0003031 321.3836 128.4619 1.00275097 58182 HIMAWARI-5 (GMS-5) 1 23522U 95011B 10075.09900637 .00000074 00000-0 10000-3 0 4100 2 23522 8.1683 59.6778 0008545 328.0410 32.0428 0.99405422 54647 GOES 10 1 24786U 97019A 10075.34953917 .00000015 00000-0 10000-3 0 3665 2 24786 4.1976 69.7419 0003479 20.8349 56.8938 0.99072161 47220 ORBVIEW 2 (SEASTAR) 1 24883U 97037A 10075.97314759 .00000031 00000-0 16515-4 0 817 2 24883 98.3719 207.1088 0002543 78.7822 281.3649 14.60029198672242 METEOSAT-7 1 24932U 97049B 10074.58915245 .00000064 00000-0 00000+0 0 9540 2 24932 5.8534 66.2807 0001731 332.1032 44.5397 1.00281131 45910 NOAA 15 1 25338U 98030A 10075.45819525 -.00000112 00000-0 -29300-4 0 3047 2 25338 98.6118 64.0759 0010461 350.5624 9.5361 14.24811499615542 GOES 11 1 26352U 00022A 10075.35041861 .00000091 00000-0 10000-3 0 7490 2 26352 0.1952 85.8421 0001312 242.7466 195.7206 1.00273361 36139 FENGYUN 2B 1 26382U 00032A 10072.83037796 -.00000276 00000-0 10000-3 0 2453 2 26382 4.9958 69.1104 0003719 228.0147 132.2492 1.00095939 35561 NOAA 16 1 26536U 00055A 10075.43546024 .00000223 00000-0 14561-3 0 7820 2 26536 99.1762 90.6974 0009960 234.6834 125.3412 14.12551379488733 GOES 12 1 26871U 01031A 10075.13710775 -.00000251 00000-0 00000+0 0 4862 2 26871 0.3256 86.7243 0003080 314.1238 107.5916 1.00278310 31730 FENGYUN 1D 1 27431U 02024B 10075.98964111 -.00000146 00000-0 -59537-4 0 8295 2 27431 98.6564 59.7126 0015713 3.7563 356.3697 14.09292086403230 NOAA 17 1 27453U 02032A 10075.39718771 .00000286 00000-0 14241-3 0 7869 2 27453 98.4430 129.5295 0012492 51.8637 308.3677 14.24140419401494 METEOSAT-8 (MSG-1) 1 27509U 02040B 10074.07908637 .00000059 00000-0 10000-3 0 4680 2 27509 0.5200 28.9347 0001363 207.7045 333.5852 1.00272379 27710 KALPANA-1 (METSAT 1) 1 27525U 02043A 10075.63641758 -.00000077 00000-0 10000-3 0 971 2 27525 0.0469 264.2474 0005923 144.0659 68.9053 1.00273459 27538 INSAT-3A 1 27714U 03013A 10074.72003528 -.00000259 00000-0 10000-3 0 427 2 27714 0.0013 207.6123 0004235 211.4701 106.8126 1.00271467 25423 FENGYUN 2C 1 28451U 04042A 10075.34105395 -.00000356 00000-0 10000-3 0 8137 2 28451 2.0650 74.7577 0001600 323.7005 21.6025 1.00277532 19776 HIMAWARI 6 (MTSAT-1R) 1 28622U 05006A 10074.42507977 -.00000283 00000-0 10000-3 0 3413 2 28622 0.0462 9.4737 0002287 173.5337 282.9605 1.00268954 18479 NOAA 18 1 28654U 05018A 10075.28807420 -.00000140 00000-0 -52560-4 0 2715 2 28654 98.9406 21.8607 0013856 319.0099 41.0042 14.11335292248333 METEOSAT-9 (MSG-2) 1 28912U 05049B 10075.07510757 -.00000003 00000-0 00000+0 0 6300 2 28912 0.2216 75.8682 0000234 267.3345 217.3787 1.00278401 15576 MTSAT-2 1 28937U 06004A 10073.56951704 -.00000248 00000-0 10000-3 0 7163 2 28937 0.0637 82.7593 0003463 264.7588 174.5236 1.00268245 14941 FORMOSAT 3A 1 29047U 06011A 10075.81802178 -.00002061 00000-0 -81734-3 0 1896 2 29047 71.9799 186.3270 0051127 34.2161 326.2018 14.27094966206622 FORMOSAT 3B 1 29048U 06011B 10075.07639637 .00000390 00000-0 17471-3 0 2397 2 29048 71.9694 102.9899 0045431 344.8099 15.1663 14.27143594208993 FORMOSAT 3C 1 29049U 06011C 10075.86285168 .00000361 00000-0 16364-3 0 1871 2 29049 72.0187 251.9838 0034912 45.0820 315.3133 14.27156518204886 FORMOSAT 3D 1 29050U 06011D 10076.04441044 .00001102 00000-0 26646-3 0 4704 2 29050 72.0091 45.0448 0054395 270.2487 89.2407 14.54148742210900 FORMOSAT 3E 1 29051U 06011E 10075.75476884 .00000373 00000-0 16522-3 0 2442 2 29051 72.0084 160.7443 0071247 275.3611 83.9388 14.27151144207458 FORMOSAT 3F 1 29052U 06011F 10075.87266237 .00000360 00000-0 16273-3 0 2657 2 29052 72.0338 223.4219 0040977 13.8449 346.3743 14.27163939205778 GOES 13 1 29155U 06018A 10075.18231438 -.00000174 00000-0 99999-4 0 207 2 29155 0.3788 265.9507 0002369 228.8711 10.1925 1.00404511 13988 METOP-A 1 29499U 06044A 10075.02021582 -.00000158 00000-0 -52146-4 0 595 2 29499 98.6834 136.0907 0000769 106.7613 253.3639 14.21498589176630 FENGYUN 2D 1 29640U 06053A 10074.97501743 -.00000197 00000-0 10000-3 0 8578 2 29640 0.4333 100.1984 0002488 292.1442 218.5825 1.00270083 12022 FENGYUN 3A 1 32958U 08026A 10075.53953754 .00000167 00000-0 10000-3 0 5474 2 32958 98.7354 148.9726 0001491 72.2212 287.9127 14.19608897 93420 NOAA 19 1 33591U 09005A 10075.32681679 .00000325 00000-0 20487-3 0 4708 2 33591 98.7805 19.4596 0013979 188.8504 171.2429 14.11034646 56813 GOES 14 1 35491U 09033A 10073.37747641 -.00000097 00000-0 10000-3 0 3879 2 35491 0.1836 259.1227 0003023 128.1421 175.9276 1.00273086 2632 METEOR-M 1 1 35865U 09049A 10075.87699604 .00000176 00000-0 10000-3 0 1519 2 35865 98.7703 130.2893 0001658 281.8851 78.2101 14.21829006 25607